[TLELIST] Archives

 

[TLELIST] Current TLEs

February 25th 2024 PDT

HST 1 20580U 90037B 24056.21951803 .00007052 00000-0 34682-3 0 9990 2 20580 28.4700 21.0188 0002619 242.2758 117.7569 15.16079770660120 ISS (ZARYA) 1 25544U 98067A 24056.34689676 .00028794 00000-0 52265-3 0 9999 2 25544 51.6416 154.5733 0005735 289.2367 179.2743 15.49326744441052 CXO 1 25867U 99040B 24056.80623026 .00000953 00000-0 00000-0 0 9991 2 25867 38.9421 165.1930 8979348 288.0527 0.5095 0.37813577 14131 ...Continue Reading

[TLELIST] Current TLEs

February 25th 2024 PDT

HST 1 20580U 90037B 24056.21951803 .00007052 00000-0 34682-3 0 9990 2 20580 28.4700 21.0188 0002619 242.2758 117.7569 15.16079770660120 ISS (ZARYA) 1 25544U 98067A 24056.34689676 .00028794 00000-0 52265-3 0 9999 2 25544 51.6416 154.5733 0005735 289.2367 179.2743 15.49326744441052 CXO 1 25867U 99040B 24056.80623026 .00000953 00000-0 00000-0 0 9991 2 25867 38.9421 165.1930 8979348 288.0527 0.5095 0.37813577 14131 ...Continue Reading

[TLELIST] Current TLEs

February 24th 2024 PDT

HST 1 20580U 90037B 24054.63962726 .00006191 00000-0 30350-3 0 9991 2 20580 28.4700 31.5763 0002645 224.1188 135.9193 15.16059691659628 ISS (ZARYA) 1 25544U 98067A 24055.31454875 -.00206501 00000-0 -38084-2 0 9994 2 25544 51.6395 159.6913 0005280 278.0474 188.7735 15.49214566440899 CXO 1 25867U 99040B 24056.80623026 .00000953 00000-0 00000-0 0 9991 2 25867 38.9421 165.1930 8979348 288.0527 0.5095 0.37813577 14131 ...Continue Reading

[TLELIST] Current TLEs

February 23rd 2024 PDT

HST 1 20580U 90037B 24053.65218573 .00006002 00000-0 29400-3 0 9991 2 20580 28.4700 38.1747 0002698 213.1950 146.8473 15.16047968659475 ISS (ZARYA) 1 25544U 98067A 24054.33494424 .00018013 00000-0 31983-3 0 9998 2 25544 51.6411 164.5373 0002036 314.9686 82.1277 15.50270617440747 CXO 1 25867U 99040B 24056.80623026 .00000953 00000-0 00000-0 0 9991 2 25867 38.9421 165.1930 8979348 288.0527 0.5095 0.37813577 14131 ...Continue Reading

[TLELIST] Current TLEs

February 23rd 2024 PDT

HST 1 20580U 90037B 24053.65218573 .00006002 00000-0 29400-3 0 9991 2 20580 28.4700 38.1747 0002698 213.1950 146.8473 15.16047968659475 ISS (ZARYA) 1 25544U 98067A 24054.33494424 .00018013 00000-0 31983-3 0 9998 2 25544 51.6411 164.5373 0002036 314.9686 82.1277 15.50270617440747 CXO 1 25867U 99040B 24056.80623026 .00000953 00000-0 00000-0 0 9991 2 25867 38.9421 165.1930 8979348 288.0527 0.5095 0.37813577 14131 ...Continue Reading

[TLELIST] Current TLEs

February 22nd 2024 PDT

HST 1 20580U 90037B 24053.19137722 .00005941 00000-0 29098-3 0 9990 2 20580 28.4700 41.2541 0002713 208.5784 151.4660 15.16042332659664 ISS (ZARYA) 1 25544U 98067A 24053.50416726 .00015852 00000-0 28281-3 0 9990 2 25544 51.6408 168.6555 0002154 305.6979 131.8336 15.50237107440614 CXO 1 25867U 99040B 24054.16120892 .00000889 00000-0 00000+0 0 9998 2 25867 38.9006 165.4810 8982588 287.8279 0.4397 0.37807402 25283 ...Continue Reading

[TLELIST] Current TLEs

February 21st 2024 PDT

HST 1 20580U 90037B 24052.07226465 .00006285 00000-0 30848-3 0 9996 2 20580 28.4699 48.7327 0002703 196.5822 163.4681 15.16029186659492 ISS (ZARYA) 1 25544U 98067A 24052.48026470 .00017399 00000-0 30993-3 0 9990 2 25544 51.6400 173.7290 0001890 294.2047 185.3654 15.50204849440450 CXO 1 25867U 99040B 24054.16120892 .00000889 00000-0 00000+0 0 9998 2 25867 38.9006 165.4810 8982588 287.8279 0.4397 0.37807402 25283 ...Continue Reading

[TLELIST] Current TLEs

February 20th 2024 PDT

HST 1 20580U 90037B 24051.01897248 .00006523 00000-0 32065-3 0 9990 2 20580 28.4699 55.7708 0002838 185.0999 174.9564 15.16016443659332 ISS (ZARYA) 1 25544U 98067A 24051.37265806 .00017376 00000-0 30995-3 0 9992 2 25544 51.6404 179.2207 0001763 287.4173 126.8856 15.50165587440286 CXO 1 25867U 99040B 24051.51598046 .00000801 00000-0 00000+0 0 9998 2 25867 38.8613 165.7697 8984714 287.5936 0.3606 0.37805981 25273 ...Continue Reading

[TLELIST] Current TLEs

February 19th 2024 PDT

HST 1 20580U 90037B 24049.70234483 .00007307 00000-0 36051-3 0 9999 2 20580 28.4700 64.5680 0002898 170.9484 189.1161 15.15999181658877 ISS (ZARYA) 1 25544U 98067A 24050.40591910 .00017388 00000-0 31053-3 0 9992 2 25544 51.6406 184.0123 0001804 287.9392 127.8783 15.50131483440135 CXO 1 25867U 99040B 24051.51598046 .00000801 00000-0 00000+0 0 9998 2 25867 38.8613 165.7697 8984714 287.5936 0.3606 0.37805981 25273 ...Continue Reading

[TLELIST] Current TLEs

February 18th 2024 PDT

HST 1 20580U 90037B 24048.71486365 .00007140 00000-0 35223-3 0 9992 2 20580 28.4698 71.1658 0002942 160.2792 199.7914 15.15984471658729 ISS (ZARYA) 1 25544U 98067A 24049.43612303 .00022294 00000-0 39608-3 0 9999 2 25544 51.6400 188.8168 0001931 283.9340 116.4488 15.50102298439989 CXO 1 25867U 99040B 24051.51598046 .00000801 00000-0 00000+0 0 9998 2 25867 38.8613 165.7697 8984714 287.5936 0.3606 0.37805981 25273 ...Continue Reading
  • This mailing list is a public mailing list - anyone may join or leave, at any time.
  • This mailing list is announce-only.

International Space Station (ISS) / Hubble Space Telescope (HST) / Chandra X-Ray Observatory Orbital Data via EMAIL

Privacy Policy:

Private list